This is the latest recevied weather packets stored in our database for station/object KC5DAQ-25. If no packets are shown the sender has not sent any weather packets the latest 10 day(s).
| Time | Temp. | Humidity | Pressure | Rain* | Wind** | Luminosity | Snow |
|---|---|---|---|---|---|---|---|
| 1777654655 | 16.67° C | 90% | 1003.5 hPa | 1.78 mm | - | 63 W/m² | - |
| 1777654592 | 16.67° C | 90% | 1003.5 hPa | 2.03 mm | - | 65 W/m² | - |
| 1777654533 | 16.67° C | 90% | 1003.6 hPa | 2.03 mm | - | 58 W/m² | - |
| 1777654469 | 16.67° C | 90% | 1003.6 hPa | 2.03 mm | - | 58 W/m² | - |
| 1777654408 | 16.67° C | 90% | 1003.6 hPa | 2.03 mm | - | 58 W/m² | - |
| 1777654347 | 16.67° C | 90% | 1003.4 hPa | 2.29 mm | - | 72 W/m² | - |
| 1777654284 | 16.67° C | 90% | 1003.1 hPa | 2.29 mm | - | 72 W/m² | - |
| 1777654221 | 16.67° C | 90% | 1002.8 hPa | 2.29 mm | - | 72 W/m² | - |
| 1777654162 | 16.67° C | 90% | 1002.7 hPa | 2.29 mm | - | 70 W/m² | - |
| 1777654085 | 16.67° C | 90% | 1002.7 hPa | 2.54 mm | - | 65 W/m² | - |
| 1777654024 | 16.67° C | 90% | 1002.9 hPa | 2.54 mm | - | 90 W/m² | - |
| 1777653962 | 16.67° C | 90% | 1003 hPa | 2.79 mm | - | 90 W/m² | - |
| 1777653904 | 16.67° C | 90% | 1003.1 hPa | 2.79 mm | - | 90 W/m² | - |
| 1777653842 | 16.67° C | 90% | 1003.2 hPa | 2.79 mm | - | 90 W/m² | - |
| 1777653784 | 16.67° C | 90% | 1003.2 hPa | 3.05 mm | - | 90 W/m² | - |
| 1777653724 | 16.67° C | 90% | 1003.2 hPa | 3.05 mm | - | 90 W/m² | - |
| 1777653662 | 16.67° C | 90% | 1003.3 hPa | 3.3 mm | - | 93 W/m² | - |
| 1777653606 | 16.67° C | 90% | 1003.3 hPa | 3.3 mm | - | - | - |
| 1777653539 | 16.67° C | 90% | 1003.5 hPa | 3.56 mm | - | 137 W/m² | - |
| 1777653480 | 16.67° C | 90% | 1003.5 hPa | 3.81 mm | - | 137 W/m² | - |
| 1777653419 | 16.67° C | 90% | 1003.5 hPa | 3.81 mm | - | 137 W/m² | - |
| 1777653358 | 16.67° C | 90% | 1003.7 hPa | 3.81 mm | - | 137 W/m² | - |
| 1777653295 | 16.67° C | 90% | 1003.7 hPa | 3.81 mm | - | 137 W/m² | - |
| 1777653237 | 16.67° C | 90% | 1003.8 hPa | 4.06 mm | - | 137 W/m² | - |
| 1777653168 | 16.67° C | 90% | 1003.8 hPa | 4.06 mm | - | 137 W/m² | - |
* Rain latest hour (hover to see other rain measurements)
** Current wind speed in m/s (hover to see current wind gust speed)